www.pogodaiklimat.ru

ПОГОДА в Ильичёвске

  • Прогноз погоды в Ильичёвске
  • Монитор погоды в Ильичёвске
  • Климат города

АРХИВ ПОГОДЫ в Ильичёвске

Время (UTC), дата Ветер
(напр.,м/с)
 
Видим.   Явления Облачность Т
(С)
Тd
(С)
f
(%)
Тe
(С)
Тes
(С)
Комфортность P
(гПа)
Po
(гПа)
Тmin
(С)
Tmax
(С)
R
(мм)
S
(см)
21 18.04 СЗ 4 10 км {ливн. осадки} 10/10 600 м
[Sc]
+9.3 +5.8 79 +6 +6 1010.7 1008.3
00 19.04 С 5 10 км в посл. час ливневой дождь 10/10 600 м
[Cb cap]
+6.7 +3.6 81 +3 +3 1011.5 1009.1 0.0
03 19.04 СЗ 5 10 км 10/10 600 м
[Sc]
+6.1 +0.2 66 +2 +2 1011.5 1008.9
06 19.04 СЗ 8 16 км 8/3 600 м
[Cu med, cong Ci fib]
+5.4 +1.4 75 -0 +1 1012.1 1009.6 +5.0 0.0
09 19.04 СЗ 8 25 км 9/9 600 м
[Sc]
+8.9 +0.4 55 +5 +5 1012.5 1010.1
12 19.04 СЗ 8 30 км в посл. час ливневой дождь 8/8 300 м
[Cb cap]
+8.9 +0.9 57 +5 +5 1012.8 1010.4 0.0
15 19.04 З 8 27 км 5/5 600 м
[Sc]
+9.9 +2.1 58 +6 +6 1013.3 1010.9
18 19.04 СЗ 4 10 км ясно +7.6 +1.1 63 +5 +5 1014.5 1012.1 +11.3 0.0
21 19.04 З 2 10 км ясно +6.2 +0.6 67 +4 +4 1014.4 1011.9
00 20.04 З 1 10 км ясно +5.8 +1.3 73 +5 +5 1012.8 1010.3
03 20.04 З 2 10 км 9/9 600 м
[Sc]
+6.2 +1.4 71 +4 +4 1010.5 1008.0
06 20.04 Ю 3 27 км 9/0
[Ac As]
+8.3 +1.7 63 +6 +8 1008.7 1006.3 +5.3
09 20.04 З 2 10 км слабый ливневой дождь 10/8 600 м
[Cu Sc As op]
+7.1 +3.0 75 +5 +6 1007.3 1004.9
12 20.04 З 3 27 км в посл. час ливневой дождь 9/4 600 м
[Cb calv Ac As]
+10.4 +4.8 68 +9 +11 1004.4 1002.0 2
15 20.04 З 8 28 км в посл. час ливневой дождь 5/3 600 м
[Cb calv Ac trans Cc]
+7.6 +3.9 77 +3 +3 1004.5 1002.1
18 20.04 СЗ 4 10 км {ливн. осадки} 5/5 600 м
[]
+6.8 +3.5 79 +3 +3 1005.9 1003.5 +11.7 3
21 20.04 С 4 10 км 6/3 600 м
[Cu hum Ci fib]
+5.0 +3.0 87 +1 +1 1007.7 1005.2
00 21.04 С 2 10 км 3/0
[Ci fib]
+3.5 0.0 78 +1 +1 1009.3 1006.8
03 21.04 С 2 28 км ясно +1.4 -1.8 79 -2 -2 1010.9 1008.4
06 21.04 СВ 4 28 км ясно +6.1 +3.2 82 +2 +6 1012.8 1010.3 +1.4
09 21.04 С 3 30 км 6/6 600 м
[Cu med, cong]
+9.7 -4.7 36 +8 +13 1013.2 1010.8
12 21.04 СЗ 2 27 км слабый ливневой дождь 8/5 600 м
[Cb cap Ac und]
+8.3 +0.6 58 +7 +10 1013.3 1010.9 0.0
15 21.04 СВ 1 10 км слабый ливневой дождь 6/6 300 м
[Cb cap]
+6.0 -0.6 63 +5 +6 1013.7 1011.2
18 21.04 С 3 10 км слабый ливневой дождь 8/8 300 м
[Cb cap]
+5.4 +2.5 82 +2 +2 1014.9 1012.4 +10.4 0.3
21 21.04 З 1 10 км {ливн. осадки} 5/5 600 м
[Sc]
+4.3 +2.0 85 +3 +3 1015.1 1012.5
00 22.04 С 3 10 км {ливн. осадки} ясно +3.3 +0.7 83 -1 -1 1015.2 1012.7 0.0
03 22.04 СЗ 3 13 км 3/3 600 м
[Sc]
+1.7 +0.1 89 -3 -3 1015.1 1012.5
06 22.04 С 4 15 км 5/3 600 м
[Sc Ac cast Ci fib]
+4.1 +1.8 85 -0 +2 1016.5 1014.0 +1.3 0.0
09 22.04 СВ 3 20 км слабый ливневой дождь 8/6 600 м
[Cb cap Ac und]
+8.5 +1.7 62 +6 +9 1017.7 1015.3
12 22.04 Ю 1 23 км {ливн. осадки} 8/5 600 м
[Cu med, cong Ac cast Ci fib]
+8.8 +0.9 58 +9 +14 1018.0 1015.6 0.0
15 22.04 В 1 30 км 6/3 600 м
[Cu med, cong Ac und Ci fib]
+9.1 -1.2 48 +9 +11 1018.5 1016.1
18 22.04 С 2 10 км 3/0
[]
+7.7 0.0 58 +6 +6 1020.1 1017.6 +11.0 0.0
21 22.04 СЗ 3 10 км ясно +4.9 +0.5 73 +2 +2 1020.9 1018.4
00 23.04 СЗ 3 10 км ясно +3.5 -0.6 75 -0 -0 1020.7 1018.1
03 23.04 СЗ 3 13 км н/о +2.4 -1.2 77 -2 -2 1020.8 1018.3
06 23.04 С 1 18 км ясно +8.0 +2.3 67 +7 +14 1021.3 1018.8 +2.4
09 23.04 ЮВ 2 22 км 6/6 600 м
[Cu med, cong]
+12.5 +4.1 57 +12 +18 1021.1 1018.7
12 23.04 Ю 8 27 км 6/6 600 м
[Cu med, cong]
+10.2 +4.3 67 +6 +7 1019.5 1017.1
15 23.04 Ю 7 18 км 9/0
[Ci fib]
+10.4 +4.1 65 +7 +8 1018.1 1015.7
18 23.04 Ю 4 10 км 4/0
[]
+9.3 +4.6 72 +7 +7 1017.3 1014.9 +14.0
21 23.04 ЮЗ 4 10 км 4/0
[Ci fib]
+8.4 +4.5 76 +5 +5 1017.7 1015.3
00 24.04 ЮЗ 4 10 км 3/0
[Ci fib]
+7.3 +3.8 78 +4 +4 1017.1 1014.5
03 24.04 ЮЗ 2 13 км 4/0
[Ci fib]
+7.1 +4.6 84 +5 +5 1016.8 1014.3
06 24.04 З 2 19 км 3/0
[Ci fib]
+12.0 +5.6 65 +11 +17 1017.1 1014.7 +7.0
09 24.04 Ю 5 23 км 4/0
[Ci fib]
+12.5 +8.2 75 +10 +18 1017.5 1015.1
12 24.04 Ю 6 27 км 3/3 600 м
[]
+12.9 +8.1 73 +11 +14 1016.7 1014.3
15 24.04 Ю 4 26 км ясно +11.9 +8.2 78 +10 +12 1015.7 1013.3
18 24.04 Ю 3 10 км ясно +10.3 +7.4 82 +8 +8 1016.5 1014.1 +15.1
21 24.04 Ю 3 10 км ясно +11.1 +7.1 76 +9 +9 1017.5 1015.1
00 25.04 ЮЗ 2 10 км ясно +11.0 +6.1 72 +10 +10 1017.3 1014.9
03 25.04 Ю 1 9000 м дымка 3/0
[Ci fib]
+7.8 +6.5 91 +7 +7 1018.1 1015.6
06 25.04 Ю 5 9000 м дымка 8/0
[Ci fib]
+10.6 +9.0 90 +8 +10 1019.1 1016.7 +7.8
09 25.04 Ю 5 19 км 8/0
[Ci fib]
+11.2 +8.4 83 +8 +15 1019.9 1017.5
12 25.04 Ю 4 27 км 3/0
[Ci fib]
+11.9 +8.5 80 +10 +18 1019.1 1016.7
15 25.04 Ю 3 20 км 8/0
[Ci fib]
+11.5 +8.0 79 +10 +12 1017.9 1015.5
18 25.04 Ю 3 10 км 5/0
[Ci fib]
+9.0 +7.3 89 +6 +6 1018.3 1015.9 +12.3

 

Местоположение метеостанции Ильичевск (Одесская область, Украина): широта 46.40 долгота 30.70 высота над уровнем моря 52 м.

В архиве по умолчанию представлена погода в Ильичёвске за последнюю неделю. Архивные данные за месяц целиком и за предыдущие месяцы, начиная с января 2011 года, Вы можете получить, выбрав интересующий диапазон дат из раскрывающегося списка и нажав кнопку "Ввод!".

Внимание! Время в таблицах - всемирное. Для получения местного времени необходимо прибавить поправку, которая в Ильичёвске равна 2 ч.

Ветер - указаны скорость ветра в м/с - средняя за 10 мин, порывы в срок и между сроками (в фигурных скобках) и направление, откуда дует ветер: С - северный, СВ - северо-восточный, В - восточный, ЮВ - юго-восточный, Ю - южный, ЮЗ - юго-западный, З - западный, СЗ - северо-западный.
Видимость - горизонтальная дальность видимости в метрах или километрах. При видимости от 1 до 10 км при отсутствии осадков обычно наблюдается дымка, при ухудшении видимости до 1 км и менее - туман. В сухую погоду видимость может ухудшаться дымом, пылью или мглою.
Явления - указаны атмосферные явления, наблюдавшиеся в срок или в последний час перед сроком; фигурными скобками обозначены явления, наблюдавшиеся между сроками (за 1-3 часа до срока); квадратными скобками обозначены град или гололедные отложения с указанием их диаметра в мм.
Облачность - указаны через наклонную черту общая и нижняя облачность в баллах и высота нижней границы облаков в метрах; квадратными скобками обозначены формы облаков: Ci - перистые, Cs - перисто-слоистые, Cc - перисто-кучевые, Ac - высококучевые, As - высокослоистые, Sc - слоисто-кучевые, Ns - слоисто-дождевые, Cu - кучевые, Cb - кучево-дождевые. Подробнее классификацию облаков см. в Атласе облаков (PDF).
T - Температура воздуха - температура, измеренная на высоте 2 м над землей.
Td - Температура точки росы - температура, при понижении до которой содержащийся в воздухе водяной пар достигнет насыщения.
f - Относительная влажность воздуха - влажноcть воздуха, измеренная на высоте 2 м над землей.
Te - Эффективная температура - температура, которую ощущает одетый по сезону человек в тени. Характеристика душности погоды. При расчете учитывается влияние влажности воздуха и скорости ветра на теплоощущения человека.
Tes - Эффективная температура на солнце - температура, которую ощущает человек, с поправкой на солнечный нагрев. Характеристика знойности погоды. Зависит от высоты солнца над горизонтом, облачности и скорости ветра. Ночью, в пасмурную погоду, а также при ветре 12 м/с и более поправка равна нулю.
P - Атмосферное давление - приведенное к уровню моря атмосферное давление.
Po - Атмосферное давление - измеренное на уровне метеостанции атмосферное давление.
Tmin - Минимальная температура - минимум температуры воздуха на высоте 2 м над землей.
Tmax - Максимальная температура - максимум температуры воздуха на высоте 2 м над землей.
R - Количество осадков - Количество выпавших осадков, мм. При наведении курсора мыши на число - период времени, за который выпало указанное количество осадков.
S - Снежный покров - Высота снежного покрова, см. При наведении курсора мыши на число - состояние снежного покрова и степень покрытия местности в баллах.